Location: Lahitte
(43.6596°N, 0.6805°E)
Time: 05:30:09
(UTC+00:00)

NOSS 3-4 (A) - Pass Details

Date: 15 May 2026
Orbit: 769 x 1442 km, 63.4° (Epoch: 10 January)

Event Time Altitude Azimuth Distance (km) Brightness Sun altitude
Rises 22:31:09 0° 318° (NW) 3,793 7.7 -24.5°
Reaches altitude 10° 22:33:43 10° 312° (NW) 2,931 6.8 -24.7°
Maximum altitude 22:40:21 45° 242° (WSW) 1,602 4.5 -25.1°
Enters shadow 22:42:31 37° 205° (SSW) 1,847 4.5 -25.2°
